Location: Dittelbrunn
(50.0738°N, 10.2196°E)
Time: 22:01:43
(UTC+00:00)

NOSS 3-2 (C) - Pass Details

Date: 18 September 2020
Orbit: 795 x 1418 km, 63.4° (Epoch: 25 October)

Event Time Altitude Azimuth Distance (km) Brightness Sun altitude
Rises 18:43:16 0° 315° (NW) 3,852 7.9 -13.1°
Reaches altitude 10° 18:45:49 10° 319° (NW) 2,981 7.0 -13.5°
Maximum altitude 18:52:58 61° 39° (NE) 1,382 4.2 -14.6°
Enters shadow 18:58:45 21° 114° (ESE) 2,613 5.1 -15.4°
